BLKT28 YWLM-YPDN

Flight info

Callsign BLKT28
Flight time N/A
Altitude 38000
Route N0467F380 DCT LIMLO H536 OMLAV Q15 WOL J42 CB J142 BORTO/N0463F400 Q22 NODUR Q158 PH/N0462F410 Y31 MANIG Y36 BIDAP T63 ARG J72 DN DCT
Aircraft P8/M-SADE2E3FGHIJ1J3J4J7M3P2RWXYZ/LB1D1

Departure

Time 2026-05-05 05:45
Airport Newcastle Airport (YWLM)

Arrival

Time N/A
Airport Darwin International Airport / RAAF Darwin (YPDN)
Time Latitude Longitude Altitude Speed Heading
2026-05-05 05:32 -32.79789 151.84261 31 ft 0 kts 145°
2026-05-05 05:38 -32.79791 151.84262 31 ft 2 kts 145°
2026-05-05 05:39 -32.79815 151.84266 31 ft 2 kts 209°
2026-05-05 05:39 -32.79810 151.84241 31 ft 6 kts 309°
2026-05-05 05:39 -32.79775 151.84184 32 ft 10 kts 286°
2026-05-05 05:39 -32.79803 151.84113 33 ft 9 kts 245°
2026-05-05 05:40 -32.79785 151.84042 33 ft 9 kts 305°
2026-05-05 05:40 -32.79741 151.83982 33 ft 10 kts 312°
2026-05-05 05:40 -32.79695 151.83921 32 ft 10 kts 311°
2026-05-05 05:40 -32.79649 151.83857 32 ft 11 kts 310°
2026-05-05 05:41 -32.79594 151.83779 31 ft 14 kts 310°
2026-05-05 05:41 -32.79522 151.83676 28 ft 18 kts 310°
2026-05-05 05:41 -32.79440 151.83561 29 ft 18 kts 310°
2026-05-05 05:41 -32.79354 151.83443 29 ft 20 kts 311°
2026-05-05 05:42 -32.79267 151.83322 32 ft 19 kts 310°
2026-05-05 05:42 -32.79181 151.83200 32 ft 20 kts 310°
2026-05-05 05:42 -32.79090 151.83071 34 ft 20 kts 310°
2026-05-05 05:42 -32.78996 151.82942 32 ft 22 kts 312°
2026-05-05 05:43 -32.78894 151.82798 30 ft 23 kts 310°
2026-05-05 05:43 -32.78789 151.82652 29 ft 24 kts 311°
2026-05-05 05:43 -32.78686 151.82510 28 ft 21 kts 310°
2026-05-05 05:43 -32.78631 151.82365 28 ft 19 kts 242°
2026-05-05 05:44 -32.78720 151.82287 28 ft 16 kts 183°
2026-05-05 05:44 -32.78758 151.82323 28 ft 0 kts 130°
2026-05-05 05:44 -32.78759 151.82324 28 ft 2 kts 130°
2026-05-05 05:44 -32.78890 151.82505 29 ft 74 kts 130°
2026-05-05 05:45 -32.79437 151.83266 30 ft 162 kts 130°
2026-05-05 05:45 -32.80225 151.84368 794 ft 172 kts 130°
2026-05-05 05:45 -32.80950 151.85374 2259 ft 155 kts 133°
2026-05-05 05:45 -32.81744 151.86317 3015 ft 173 kts 155°
2026-05-05 05:46 -32.83007 151.86513 3394 ft 201 kts 186°
2026-05-05 05:46 -32.84516 151.86413 3664 ft 231 kts 184°
2026-05-05 05:46 -32.86154 151.86349 4259 ft 239 kts 183°
2026-05-05 05:46 -32.87837 151.86303 4986 ft 243 kts 183°
2026-05-05 05:47 -32.89555 151.86269 5557 ft 256 kts 183°
2026-05-05 05:47 -32.91396 151.86245 6122 ft 271 kts 183°
2026-05-05 05:47 -32.93307 151.86230 7017 ft 276 kts 183°
2026-05-05 05:47 -32.95240 151.86221 7954 ft 280 kts 184°
2026-05-05 05:48 -32.97212 151.86216 8842 ft 286 kts 184°
2026-05-05 05:48 -32.99196 151.86212 9718 ft 292 kts 184°
2026-05-05 05:48 -33.01259 151.86209 10453 ft 303 kts 184°
2026-05-05 05:48 -33.03466 151.86201 10685 ft 331 kts 184°
2026-05-05 05:49 -33.05859 151.86198 10901 ft 356 kts 183°
2026-05-05 05:49 -33.08389 151.86211 11431 ft 369 kts 183°
2026-05-05 05:49 -33.10977 151.86231 12191 ft 373 kts 183°
2026-05-05 05:49 -33.13589 151.86252 13013 ft 376 kts 183°
2026-05-05 05:50 -33.16226 151.86270 13792 ft 381 kts 183°
2026-05-05 05:50 -33.18852 151.86285 14474 ft 385 kts 183°
2026-05-05 05:50 -33.21553 151.86307 15180 ft 389 kts 181°
2026-05-05 05:50 -33.24268 151.86547 15882 ft 395 kts 176°
2026-05-05 05:51 -33.27013 151.86960 16580 ft 399 kts 175°
2026-05-05 05:51 -33.29775 151.87406 17257 ft 403 kts 175°
2026-05-05 05:51 -33.32576 151.87826 17920 ft 407 kts 176°
2026-05-05 05:51 -33.35400 151.88221 18556 ft 411 kts 176°
2026-05-05 05:52 -33.38256 151.88423 19106 ft 411 kts 187°
2026-05-05 05:52 -33.41060 151.87821 19694 ft 408 kts 201°
2026-05-05 05:52 -33.43654 151.86484 20286 ft 404 kts 215°
2026-05-05 05:52 -33.45984 151.84686 20897 ft 404 kts 218°
2026-05-05 05:53 -33.48354 151.82776 21483 ft 407 kts 218°
2026-05-05 05:53 -33.50676 151.80889 22020 ft 410 kts 219°
2026-05-05 05:53 -33.53051 151.78966 22558 ft 413 kts 219°
2026-05-05 05:53 -33.55443 151.77042 23072 ft 416 kts 219°
2026-05-05 05:54 -33.57860 151.75109 23589 ft 419 kts 219°
2026-05-05 05:54 -33.60305 151.73162 24016 ft 423 kts 219°
2026-05-05 05:54 -33.62763 151.71209 24414 ft 426 kts 219°
2026-05-05 05:54 -33.65247 151.69236 24806 ft 429 kts 219°
2026-05-05 05:55 -33.67755 151.67245 25199 ft 432 kts 219°
2026-05-05 05:55 -33.70272 151.65245 25587 ft 435 kts 219°
2026-05-05 05:55 -33.72810 151.63227 25975 ft 438 kts 219°
2026-05-05 05:55 -33.75356 151.61201 26353 ft 441 kts 219°
2026-05-05 05:56 -33.77929 151.59151 26715 ft 444 kts 219°
2026-05-05 05:56 -33.80476 151.57121 27071 ft 447 kts 220°
2026-05-05 05:56 -33.83076 151.55048 27434 ft 449 kts 220°
2026-05-05 05:56 -33.85689 151.52961 27782 ft 452 kts 220°
2026-05-05 05:57 -33.88315 151.50863 28125 ft 454 kts 220°
2026-05-05 05:57 -33.90954 151.48753 28462 ft 457 kts 220°
2026-05-05 05:57 -33.93616 151.46623 28788 ft 459 kts 220°
2026-05-05 05:57 -33.96285 151.44487 29111 ft 462 kts 220°
2026-05-05 05:58 -33.98972 151.42333 29421 ft 464 kts 220°
2026-05-05 05:58 -34.01660 151.40178 29811 ft 465 kts 220°
2026-05-05 05:58 -34.04349 151.38022 30290 ft 463 kts 220°
2026-05-05 05:58 -34.07022 151.35879 30728 ft 460 kts 220°
2026-05-05 05:59 -34.09657 151.33762 31106 ft 459 kts 221°
2026-05-05 05:59 -34.12318 151.31621 31463 ft 459 kts 221°
2026-05-05 05:59 -34.14976 151.29480 31831 ft 459 kts 221°
2026-05-05 05:59 -34.17631 151.27340 32220 ft 457 kts 221°
2026-05-05 06:00 -34.20279 151.25205 32608 ft 456 kts 221°
2026-05-05 06:00 -34.22919 151.23074 32965 ft 456 kts 221°
2026-05-05 06:00 -34.25561 151.20939 33311 ft 456 kts 222°
2026-05-05 06:00 -34.28189 151.18815 33680 ft 455 kts 222°
2026-05-05 06:01 -34.30789 151.16713 34039 ft 454 kts 222°
2026-05-05 06:01 -34.33376 151.14553 34343 ft 449 kts 226°
2026-05-05 06:01 -34.35687 151.12071 34623 ft 439 kts 234°
2026-05-05 06:01 -34.37612 151.09246 34896 ft 430 kts 241°
2026-05-05 06:02 -34.39373 151.06315 35196 ft 429 kts 242°
2026-05-05 06:02 -34.41116 151.03385 35462 ft 429 kts 242°
2026-05-05 06:02 -34.42866 151.00453 35719 ft 429 kts 242°
2026-05-05 06:02 -34.44625 150.97529 36005 ft 429 kts 241°
2026-05-05 06:03 -34.46387 150.94619 36274 ft 428 kts 241°
2026-05-05 06:03 -34.48149 150.91717 36533 ft 428 kts 241°
2026-05-05 06:03 -34.49917 150.88807 36793 ft 428 kts 241°
2026-05-05 06:03 -34.51681 150.85902 37046 ft 428 kts 241°
2026-05-05 06:04 -34.53447 150.82990 37313 ft 427 kts 241°
2026-05-05 06:04 -34.55209 150.80080 37579 ft 427 kts 241°
2026-05-05 06:04 -34.56821 150.77090 37806 ft 422 kts 246°
2026-05-05 06:04 -34.58263 150.74046 38043 ft 420 kts 248°
2026-05-05 06:05 -34.61100 150.67804 38136 ft 424 kts 248°
2026-05-05 06:05 -34.63942 150.61552 38124 ft 420 kts 248°
2026-05-05 06:06 -34.66776 150.55373 38140 ft 417 kts 247°
2026-05-05 06:06 -34.69601 150.49227 38139 ft 416 kts 247°
2026-05-05 06:07 -34.72407 150.43119 38138 ft 416 kts 247°
2026-05-05 06:07 -34.75228 150.36969 38142 ft 417 kts 247°
2026-05-05 06:08 -34.78057 150.30788 38145 ft 419 kts 247°
2026-05-05 06:08 -34.80897 150.24574 38152 ft 421 kts 247°
2026-05-05 06:09 -34.83757 150.18302 38151 ft 424 kts 247°
2026-05-05 06:09 -34.86623 150.12008 38151 ft 426 kts 247°
2026-05-05 06:10 -34.89483 150.05717 38155 ft 427 kts 247°
2026-05-05 06:10 -34.92368 149.99358 38152 ft 429 kts 247°
2026-05-05 06:11 -34.95250 149.92995 38153 ft 429 kts 247°
2026-05-05 06:11 -34.98127 149.86632 38140 ft 428 kts 246°
2026-05-05 06:12 -35.00998 149.80270 38165 ft 427 kts 246°
2026-05-05 06:12 -35.03857 149.73922 38155 ft 426 kts 246°
2026-05-05 06:13 -35.06699 149.67600 38162 ft 424 kts 246°
2026-05-05 06:13 -35.09513 149.61327 38156 ft 423 kts 246°
2026-05-05 06:14 -35.12342 149.55011 38162 ft 422 kts 246°
2026-05-05 06:14 -35.15157 149.48712 38152 ft 422 kts 246°
2026-05-05 06:15 -35.17969 149.42409 38159 ft 421 kts 246°
2026-05-05 06:15 -35.20754 149.36153 38161 ft 421 kts 246°
2026-05-05 06:16 -35.23553 149.29856 38160 ft 421 kts 246°
2026-05-05 06:16 -35.26355 149.23543 38166 ft 422 kts 246°
2026-05-05 06:17 -35.28613 149.16996 38159 ft 414 kts 261°
2026-05-05 06:17 -35.29777 149.10151 38158 ft 413 kts 262°
2026-05-05 06:18 -35.30909 149.03236 38161 ft 414 kts 262°
2026-05-05 06:18 -35.32065 148.96310 38157 ft 415 kts 262°
2026-05-05 06:19 -35.33226 148.89409 38153 ft 416 kts 262°
2026-05-05 06:19 -35.34396 148.82460 38155 ft 417 kts 262°
2026-05-05 06:20 -35.35564 148.75495 38174 ft 417 kts 262°
2026-05-05 06:20 -35.36729 148.68520 38172 ft 417 kts 262°
2026-05-05 06:21 -35.37883 148.61584 38172 ft 418 kts 262°
2026-05-05 06:21 -35.39042 148.54592 38181 ft 418 kts 262°
2026-05-05 06:22 -35.40195 148.47611 38176 ft 418 kts 262°
2026-05-05 06:22 -35.41152 148.41795 38186 ft 418 kts 262°
2026-05-05 06:23 -35.42300 148.34800 38178 ft 418 kts 262°
2026-05-05 06:23 -35.43439 148.27820 38192 ft 417 kts 262°
2026-05-05 06:24 -35.44550 148.20875 38187 ft 417 kts 262°
2026-05-05 06:24 -35.45660 148.13891 38189 ft 417 kts 262°
2026-05-05 06:25 -35.46765 148.06916 38187 ft 416 kts 262°
2026-05-05 06:25 -35.47866 147.99944 38204 ft 416 kts 262°
2026-05-05 06:26 -35.48964 147.92972 38200 ft 416 kts 262°
2026-05-05 06:26 -35.50058 147.85996 38198 ft 416 kts 262°
2026-05-05 06:27 -35.51684 147.75576 38199 ft 416 kts 262°
2026-05-05 06:28 -35.52766 147.68609 38201 ft 416 kts 262°
2026-05-05 06:28 -35.53847 147.61622 38209 ft 416 kts 262°
2026-05-05 06:29 -35.54922 147.54641 38201 ft 416 kts 262°
2026-05-05 06:29 -35.55994 147.47654 38204 ft 416 kts 262°
2026-05-05 06:30 -35.57055 147.40716 38205 ft 416 kts 262°
2026-05-05 06:30 -35.58119 147.33725 38210 ft 416 kts 262°
2026-05-05 06:31 -35.59179 147.26731 38205 ft 416 kts 262°
2026-05-05 06:31 -35.60235 147.19737 38201 ft 417 kts 262°
2026-05-05 06:32 -35.61290 147.12719 38205 ft 417 kts 262°
2026-05-05 06:32 -35.62332 147.05756 38204 ft 417 kts 262°
2026-05-05 06:33 -35.63380 146.98730 38205 ft 418 kts 262°
2026-05-05 06:33 -35.64424 146.91702 38209 ft 418 kts 262°
2026-05-05 06:34 -35.65551 146.84078 38207 ft 418 kts 262°
2026-05-05 06:34 -35.66589 146.77029 38204 ft 419 kts 262°
2026-05-05 06:35 -35.67615 146.70028 38205 ft 419 kts 262°
2026-05-05 06:35 -35.68645 146.62971 38205 ft 419 kts 262°
2026-05-05 06:36 -35.69671 146.55912 38207 ft 419 kts 262°
2026-05-05 06:36 -35.70694 146.48849 38205 ft 419 kts 262°
2026-05-05 06:37 -35.71712 146.41785 38205 ft 419 kts 262°
2026-05-05 06:37 -35.72726 146.34713 38204 ft 419 kts 262°
2026-05-05 06:38 -35.73737 146.27640 38208 ft 419 kts 262°
2026-05-05 06:38 -35.74743 146.20566 38202 ft 419 kts 262°
2026-05-05 06:39 -35.75739 146.13534 38206 ft 419 kts 262°
2026-05-05 06:39 -35.76738 146.06447 38203 ft 419 kts 262°
2026-05-05 06:40 -35.77731 145.99375 38203 ft 419 kts 262°
2026-05-05 06:40 -35.78722 145.92281 38209 ft 420 kts 262°
2026-05-05 06:41 -35.79709 145.85192 38205 ft 420 kts 262°
2026-05-05 06:41 -35.80685 145.78145 38206 ft 420 kts 262°
2026-05-05 06:42 -35.81664 145.71044 38203 ft 420 kts 262°
2026-05-05 06:42 -35.82640 145.63936 38208 ft 420 kts 262°
2026-05-05 06:43 -35.83612 145.56824 38207 ft 421 kts 262°
2026-05-05 06:43 -35.84580 145.49708 38205 ft 421 kts 262°
2026-05-05 06:44 -35.85539 145.42626 38209 ft 421 kts 262°
2026-05-05 06:44 -35.86498 145.35507 38209 ft 421 kts 262°
2026-05-05 06:45 -35.87456 145.28372 38211 ft 421 kts 262°
2026-05-05 06:45 -35.88407 145.21246 38208 ft 422 kts 262°
2026-05-05 06:46 -35.89356 145.14105 38211 ft 422 kts 262°
2026-05-05 06:46 -35.90302 145.06958 38215 ft 422 kts 262°
2026-05-05 06:47 -35.91243 144.99809 38217 ft 422 kts 262°
2026-05-05 06:47 -35.92176 144.92686 38341 ft 426 kts 262°
2026-05-05 06:47 -35.92649 144.89070 38631 ft 424 kts 262°
2026-05-05 06:48 -35.93116 144.85482 38942 ft 422 kts 262°
2026-05-05 06:48 -35.93582 144.81903 39141 ft 422 kts 263°
2026-05-05 06:48 -35.94045 144.78329 39300 ft 422 kts 263°
2026-05-05 06:48 -35.94507 144.74758 39492 ft 421 kts 263°
2026-05-05 06:49 -35.94968 144.71191 39676 ft 421 kts 263°
2026-05-05 06:49 -35.95427 144.67621 39827 ft 421 kts 263°
2026-05-05 06:49 -35.95886 144.64046 39974 ft 421 kts 263°
2026-05-05 06:49 -35.96342 144.60483 40138 ft 420 kts 263°
2026-05-05 06:50 -35.96798 144.56912 40203 ft 422 kts 263°
2026-05-05 06:50 -35.97707 144.49768 40218 ft 423 kts 263°
2026-05-05 06:51 -35.98618 144.42586 40212 ft 421 kts 263°
2026-05-05 06:51 -35.99516 144.35460 40217 ft 419 kts 263°
2026-05-05 06:52 -36.00409 144.28348 40217 ft 418 kts 263°
2026-05-05 06:52 -36.01294 144.21255 40217 ft 417 kts 263°
2026-05-05 06:53 -36.02174 144.14170 40222 ft 417 kts 263°
2026-05-05 06:53 -36.03044 144.07131 40221 ft 417 kts 263°
2026-05-05 06:54 -36.03916 144.00039 40226 ft 418 kts 263°
2026-05-05 06:54 -36.04785 143.92931 40225 ft 418 kts 263°
2026-05-05 06:55 -36.05652 143.85812 40223 ft 419 kts 263°
2026-05-05 06:55 -36.06516 143.78679 40227 ft 420 kts 263°
2026-05-05 06:56 -36.07377 143.71531 40227 ft 421 kts 263°